Hourly Data Report for October 23, 2013

All times are specified in Local Standard Time (LST). Add 1 hour to adjust for Daylight Saving Time where and when it is observed.

RANKIN INLET A
NUNAVUT

62°48'38.000" N
92°06'53.000" W
32.30 m
2303405
71083
YRT

Related Data

No related data is available for this station

Download Data

Hourly Data (October 2013)
Hourly Data Report for October 23, 2013
Temp Definition
°C
Dew Point Temp Definition
°C
Rel Hum Definition
%
Wind Dir Definition
10's deg

Wind Spd Definition
km/h
Visibility Definition
km
Stn Press Definition
kPa
Hmdx Definition


Wind Chill Definition


Weather Definition


TIME
00:00 Legend Double Dagger -2.4 -3.2 94 1 22 19.3 100.89   -9 Snow
01:00 Legend Double Dagger -2.7 -3.5 94 1 19 19.3 100.89   -8 Snow
02:00 Legend Double Dagger -3.5 -4.3 94 36 16 19.3 100.89   -9 Snow
03:00 Legend Double Dagger -3.4 -4.2 94 36 17 24.1 100.88   -9 Snow
04:00 Legend Double Dagger -3.2 -4.0 94 36 13 12.9 100.89   -8 Snow
05:00 Legend Double Dagger -3.1 -3.9 94 36 17 12.9 100.87   -9 Snow
06:00 Legend Double Dagger -3.0 -3.8 94 36 19 19.3 100.87   -9 Snow
07:00 Legend Double Dagger -3.0 -3.8 94 1 18 16.1 100.88   -9 Snow
08:00 Legend Double Dagger -3.2 -4.0 94 36 20 2.4 100.89   -9 Snow
09:00 Legend Double Dagger -3.2 -4.0 94 1 19 2.4 100.89   -9 Snow
10:00 Legend Double Dagger -2.9 -3.9 93 1 22 4.8 100.91   -9 Snow
11:00 Legend Double Dagger -2.8 -3.8 93 36 24 4.8 100.92   -9 Snow
12:00 Legend Double Dagger -2.8 -3.9 92 36 23 16.1 100.92   -9 Snow
13:00 Legend Double Dagger -2.6 -3.7 92 36 23 24.1 100.96   -9 Snow
14:00 Legend Double Dagger -2.7 -3.8 92 36 21 24.1 100.99   -9 Snow
15:00 Legend Double Dagger -2.8 -3.9 92 36 27 24.1 101.03   -10 Snow
16:00 Legend Double Dagger -2.9 -3.9 93 36 28 24.1 101.05   -10 Snow
17:00 Legend Double Dagger -3.1 -3.9 94 35 29 24.1 101.08   -10 Snow
18:00 Legend Double Dagger -3.3 -4.3 93 35 24 24.1 101.11   -10 Snow
19:00 Legend Double Dagger -3.5 -4.5 93 35 28 24.1 101.12   -11 Snow
20:00 Legend Double Dagger -3.7 -4.7 93 35 29 19.3 101.11   -11 Snow
21:00 Legend Double Dagger -3.8 -4.8 93 35 28 24.1 101.13   -11 Snow
22:00 Legend Double Dagger -3.8 -4.8 93 35 30 24.1 101.12   -11 Snow
23:00 Legend Double Dagger -4.2 -5.2 93 35 28 24.1 101.14   -12 Snow

Notes on Data Quality.

Legend

  • E = Estimated
  • M = Missing
  • NA = Not Available
  • ‡ = Partner data that is not subject to review by the National Climate Archives
Date modified: